Stations météo

Publicité
Perpignan, France (7747): Température de l'air & dewpoint: 11.12.2017 03:00:00 - 17.12.2017 03:00:00 (CET)Perpignan, France (7747): Température de l'air 5cm: 11.12.2017 03:00:00 - 17.12.2017 03:00:00 (CET)Perpignan, France (7747): Température de l'air -20cm & Température de l'air -100cm: 11.12.2017 03:00:00 - 17.12.2017 03:00:00 (CET)Perpignan, France (7747): Vitesse du vent & gusts: 11.12.2017 03:00:00 - 17.12.2017 03:00:00 (CET)Perpignan, France (7747): Direction du vent: 11.12.2017 03:00:00 - 17.12.2017 03:00:00 (CET)Perpignan, France (7747): reduced air pressure: 11.12.2017 03:00:00 - 17.12.2017 03:00:00 (CET)Perpignan, France (7747): visibility: 11.12.2017 03:00:00 - 17.12.2017 03:00:00 (CET)Perpignan, France (7747): Ensoleillement: 11.12.2017 03:00:00 - 17.12.2017 03:00:00 (CET)Perpignan, France (7747): Quantités de précipitations: 11.12.2017 03:00:00 - 17.12.2017 03:00:00 (CET)
Date & Time tt [°C] td [°C] tt 5cm [°C] tt -20cm [°C] tt -100cm [°C] ff [km/h] ff [knt] fx [km/h] fx [knt] dd ppp [hPa] vv [km] sd [min] rr [mm]
17.12.2017 03:00:00 6,9 -0,6 6,1 9,2 12,7 31 17 56 30 NW 1025,4 60 0 0,0
17.12.2017 02:00:00 7,0 -0,7 6,0 9,2 12,7 28 15 58 31 NW 1025,4 10 0 0,0
17.12.2017 01:00:00 6,9 -0,8 6,1 9,3 12,7 30 16 60 33 NW 1025,6 60 0 0,0
17.12.2017 00:00:00 6,9 -0,3 6,0 9,4 12,7 29 15 56 30 NW 1025,4 60 0 0,0
16.12.2017 23:00:00 7,0 -0,7 6,2 9,4 12,7 39 21 69 38 NW 1024,2 60 0 0,0
16.12.2017 22:00:00 7,0 -0,7 6,3 9,5 12,7 29 16 64 35 NW 1023,7 60 0 0,0
16.12.2017 21:00:00 7,4 -1,1 6,1 9,6 12,7 29 16 58 31 NW 1023,2 60 0 0,0
16.12.2017 20:00:00 7,2 -1,2 5,8 9,6 12,7 18 10 54 29 NW 1022,7 60 0 0,0
16.12.2017 19:00:00 7,1 -1,6 6,0 9,6 12,7 22 12 55 30 NW 1021,6 60 0 0,0
16.12.2017 18:00:00 7,5 -1,2 6,7 9,6 12,7 29 16 58 31 NNW 1021,0 60 0 0,0
16.12.2017 17:00:00 8,4 -2,3 7,9 9,6 12,7 33 18 69 37 NNW 1020,3 60 41 0,0
16.12.2017 16:00:00 9,2 -1,8 9,8 9,6 12,8 37 20 64 34 NW 1019,1 35 60 0,0
16.12.2017 15:00:00 10,0 -1,4 10,5 9,4 12,7 23 13 72 39 NW 1018,6 39 58 0,0
16.12.2017 14:00:00 10,0 -1,7 11,6 9,4 12,7 42 23 71 38 NW 1017,7 24 60 0,0
16.12.2017 13:00:00 9,8 -2,2 11,6 9,3 12,7 48 26 81 44 NW 1017,3 10 60 0,0
16.12.2017 12:00:00 9,5 -1,9 9,2 9,3 12,7 46 25 79 43 NW 1018,0 34 43 0,0
16.12.2017 11:00:00 8,6 -1,3 8,3 9,3 12,7 32 18 71 39 NW 1018,1 53 25 0,0
16.12.2017 10:00:00 8,4 -1,2 8,0 9,4 12,7 38 20 62 34 NW 1016,6 37 55 0,0
16.12.2017 09:00:00 7,8 -0,9 6,2 9,4 12,7 31 17 57 31 NNW 1015,2 36 24 0,0
16.12.2017 08:00:00 7,5 -0,5 6,5 9,5 12,7 33 18 55 30 NW 1014,8 41 0 0,0
16.12.2017 07:00:00 7,7 0,2 6,6 9,6 12,7 29 16 60 32 NW 1013,7 10 0 0,0
16.12.2017 06:00:00 7,6 0,6 6,6 9,7 12,7 37 20 67 36 NW 1012,2 10 0 0,0
16.12.2017 05:00:00 7,4 1,0 5,8 9,8 12,7 29 16 50 27 NW 1011,6 10 0 0,0
16.12.2017 04:00:00 7,1 1,4 4,9 9,8 12,7 24 13 42 23 WNW 1012,4 60 0 0,0
16.12.2017 03:00:00 7,6 1,6 6,5 9,9 12,7 25 13 66 36 NW 1012,5 60 0 0,0
16.12.2017 02:00:00 8,0 1,8 6,6 10,0 12,7 46 25 67 36 NW 1009,9 60 0 0,0
16.12.2017 01:00:00 8,1 1,9 7,5 10,0 12,6 35 19 65 35 NW 1010,0 10 0 0,0
16.12.2017 00:00:00 8,5 2,3 7,6 10,1 12,7 34 19 66 35 WNW 1009,6 60 0 0,0
15.12.2017 23:00:00 8,8 1,7 6,4 10,2 12,7 35 19 64 35 WNW 1009,2 10 0 0,0
15.12.2017 22:00:00 8,5 2,5 5,9 10,3 12,7 37 20 81 44 WNW 1009,2 60 0 0,0
15.12.2017 21:00:00 9,7 1,6 8,7 10,3 12,7 44 24 75 41 NW 1007,7 60 0 0,0
15.12.2017 20:00:00 9,7 1,3 8,6 10,4 12,7 41 22 64 35 WNW 1007,3 10 0 0,0
15.12.2017 19:00:00 10,4 1,0 9,4 10,4 12,7 39 21 68 37 WNW 1007,2 60 0 0,0
15.12.2017 18:00:00 11,0 -0,8 9,9 10,5 12,7 29 16 55 30 WNW 1006,4 60 0 0,0
15.12.2017 17:00:00 11,3 -0,5 10,5 10,4 12,7 30 16 58 31 WNW 1006,2 60 50 0,0
15.12.2017 16:00:00 11,6 1,2 12,5 10,4 12,6 20 11 65 35 NW 1006,2 60 60 0,0
15.12.2017 15:00:00 12,3 0,1 12,7 10,3 12,6 46 25 81 44 NW 1005,3 31 60 0,0
15.12.2017 14:00:00 12,0 1,0 13,5 10,2 12,6 53 29 83 45 NW 1003,8 48 60 0,0
15.12.2017 13:00:00 11,4 1,9 11,3 10,2 12,7 21 11 61 33 NW 1006,2 60 23 0,0
15.12.2017 12:00:00 11,7 0,7 10,0 10,2 12,7 26 14 56 30 NW 1006,4 60 32 0,0
15.12.2017 11:00:00 9,9 1,5 7,9 10,3 12,7 25 13 49 26 NW 1007,1 60 5 0,0
15.12.2017 10:00:00 7,9 1,9 7,8 10,3 12,7 19 10 42 23 NW 1007,9 60 0 0,0
15.12.2017 09:00:00 8,2 2,4 7,7 10,3 12,7 28 15 49 27 NW 1008,2 60 0 0,0
15.12.2017 08:00:00 9,3 3,3 8,9 10,3 12,6 26 14 58 32 N 1006,9 10 0 0,0
15.12.2017 07:00:00 12,7 4,6 11,7 10,3 12,6 32 17 58 31 NW 1005,0 60 0 0,0
15.12.2017 06:00:00 12,5 5,9 10,9 10,3 12,6 24 13 38 21 WNW 1005,4 60 0 0,0
15.12.2017 05:00:00 12,1 6,4 10,2 10,4 12,6 16 9 37 20 WNW 1005,7 60 0 0,0
15.12.2017 04:00:00 11,3 6,8 9,3 10,4 12,7 15 8 46 25 W 1006,9 10 0 0,0
15.12.2017 03:00:00 12,4 6,4 10,5 10,4 12,6 29 16 51 28 WNW 1007,4 10 0 0,0
15.12.2017 02:00:00 11,6 7,1 7,5 10,5 12,6 28 15 46 25 NW 1008,7 10 0 0,4
15.12.2017 01:00:00 8,6 4,8 5,8 10,6 12,6 9 5 16 9 WSW 1009,0 10 0 0,0
15.12.2017 00:00:00 8,8 5,2 6,1 10,6 12,6 9 5 13 7 SW 1009,4 10 0 0,0
14.12.2017 23:00:00 8,9 5,5 4,5 10,7 12,6 5 3 14 8 - 1009,7 10 0 0,0
14.12.2017 22:00:00 8,2 4,8 3,3 10,8 12,7 9 5 10 6 SW 1009,9 26 0 0,0
14.12.2017 21:00:00 9,3 5,7 4,9 10,8 12,7 2 1 8 5 SSW 1010,6 51 0 0,0
14.12.2017 20:00:00 11,4 6,9 8,5 10,8 12,6 3 2 7 4 ESE 1010,5 50 0 0,0
14.12.2017 19:00:00 12,2 7,5 10,2 10,8 12,6 6 3 10 5 WNW 1010,9 57 0 0,0
14.12.2017 18:00:00 12,5 7,2 9,3 10,7 12,6 6 3 8 5 S 1011,1 60 0 0,0
14.12.2017 17:00:00 13,8 7,8 13,2 10,6 12,7 8 4 13 7 ESE 1011,7 60 0 0,0
14.12.2017 16:00:00 15,1 7,4 15,1 10,4 12,7 9 5 16 9 E 1011,8 10 37 0,0
14.12.2017 15:00:00 16,1 6,5 16,3 10,2 12,7 12 6 19 11 E 1012,0 55 32 0,0
14.12.2017 14:00:00 17,0 5,6 17,7 10,1 12,7 9 5 22 12 E 1012,2 10 28 0,0
14.12.2017 13:00:00 17,9 4,5 17,2 9,9 12,6 8 4 22 12 SW 1013,0 59 48 0,0
14.12.2017 12:00:00 16,3 4,3 17,4 9,8 12,6 5 3 13 7 W 1014,5 57 1 0,0
14.12.2017 11:00:00 16,4 4,1 15,3 9,7 12,7 11 6 40 22 W 1014,8 10 0 0,0
14.12.2017 10:00:00 15,5 3,6 14,2 9,6 12,7 28 15 46 25 W 1015,0 59 0 0,0
14.12.2017 09:00:00 14,7 5,7 13,4 9,5 12,7 21 11 41 22 W 1015,4 10 0 0,0
14.12.2017 08:00:00 15,0 8,0 13,8 9,5 12,7 24 13 39 21 WNW 1015,5 10 0 0,0
14.12.2017 07:00:00 14,6 8,3 13,7 9,4 12,7 16 9 44 24 WNW 1015,0 60 0 0,0
14.12.2017 06:00:00 14,6 8,5 13,7 9,3 12,7 21 11 49 27 NW 1014,4 10 0 0,0
14.12.2017 05:00:00 14,9 8,8 14,1 9,2 12,7 28 15 55 30 NW 1014,7 10 0 0,0
14.12.2017 04:00:00 15,4 9,1 8,0 9,2 12,8 31 17 59 32 NW 1014,8 60 0 0,0
14.12.2017 03:00:00 10,0 3,9 7,7 9,2 12,8 9 5 29 16 N 1015,2 10 0 0,0
14.12.2017 02:00:00 9,4 2,3 8,2 9,2 12,8 5 3 8 4 SSW 1015,5 36 0 0,0
14.12.2017 01:00:00 9,4 2,3 8,5 9,1 12,8 4 2 18 10 W 1015,6 41 0 0,0
14.12.2017 00:00:00 9,3 2,2 8,7 9,1 12,8 8 4 15 8 WSW 1016,2 10 0 0,0
13.12.2017 23:00:00 9,5 3,2 8,5 9,1 12,8 4 2 13 7 SW 1016,8 60 0 0,0
13.12.2017 22:00:00 9,1 2,6 7,8 9,1 12,9 10 5 13 7 SW 1017,2 36 0 0,0
13.12.2017 21:00:00 8,8 2,8 7,4 9,0 12,8 9 5 16 8 WSW 1017,6 51 0 0,0
13.12.2017 20:00:00 8,8 2,1 7,2 9,0 12,8 4 2 11 6 WNW 1017,7 27 0 0,0
13.12.2017 19:00:00 8,0 2,7 4,2 8,9 12,8 4 2 8 4 WNW 1018,3 34 0 0,0
13.12.2017 18:00:00 9,2 1,8 4,3 8,8 12,9 0 0 5 3 N 1018,3 24 0 0,0
13.12.2017 17:00:00 11,4 -0,1 9,5 8,6 12,9 0 0 7 4 N 1018,6 10 3 0,0
13.12.2017 16:00:00 12,8 -0,8 13,3 8,3 12,8 4 2 8 5 - 1018,4 10 53 0,0
13.12.2017 15:00:00 13,4 -0,6 13,3 8,1 12,8 4 2 10 5 - 1018,7 10 19 0,0
13.12.2017 14:00:00 13,4 -1,0 14,7 7,9 12,8 2 1 8 4 ENE 1019,5 59 41 0,0
13.12.2017 13:00:00 11,5 -2,7 12,5 7,7 12,8 3 1 9 5 WSW 1020,4 50 34 0,0
13.12.2017 12:00:00 9,6 -3,4 7,4 7,7 12,9 3 2 8 4 E 1021,2 44 33 0,0
13.12.2017 11:00:00 6,6 -4,2 6,8 7,7 12,9 2 1 10 5 SSE 1022,7 56 9 0,0
13.12.2017 10:00:00 5,7 -4,8 5,0 7,8 12,9 4 2 11 6 WSW 1022,8 53 33 0,0
13.12.2017 09:00:00 1,9 -5,3 -3,6 7,9 12,9 6 4 13 7 SSW 1023,0 60 34 0,0
13.12.2017 08:00:00 0,0 -6,4 -3,7 8,1 13,0 9 5 18 10 WSW 1023,1 60 0 0,0
13.12.2017 07:00:00 0,4 -5,4 -5,1 8,2 12,9 11 6 18 10 W 1022,9 60 0 0,0
13.12.2017 06:00:00 -0,3 -4,7 -5,1 8,4 12,9 5 3 13 7 WNW 1022,7 60 0 0,0
13.12.2017 05:00:00 -0,4 -5,6 -2,7 8,6 13,0 9 5 21 11 W 1022,6 10 0 0,0
13.12.2017 04:00:00 0,4 -4,8 -1,8 8,7 12,9 13 7 23 12 SW 1022,9 10 0 0,0
13.12.2017 03:00:00 0,3 -5,1 -1,3 8,8 12,9 16 9 21 11 WSW 1023,2 60 0 0,0
13.12.2017 02:00:00 1,4 -2,9 -3,1 9,0 13,0 10 5 14 8 S 1023,0 60 0 0,0
13.12.2017 01:00:00 2,8 -1,8 -2,1 9,1 12,9 4 2 16 9 SSW 1022,9 60 0 0,0
13.12.2017 00:00:00 3,9 -1,3 -2,1 9,2 12,9 5 3 23 12 WSW 1022,5 60 0 0,0
12.12.2017 23:00:00 5,4 -0,4 2,8 9,3 12,9 10 5 27 14 WNW 1022,1 60 0 0,0
12.12.2017 22:00:00 5,7 0,2 3,3 9,4 13,0 17 9 29 15 W 1021,2 60 0 0,0
12.12.2017 21:00:00 6,0 0,9 3,6 9,5 13,0 16 9 29 16 WNW 1020,9 60 0 0,0
12.12.2017 20:00:00 6,6 1,3 4,3 9,6 12,9 9 5 21 12 NNW 1020,6 10 0 0,0
12.12.2017 19:00:00 7,0 1,5 5,6 9,6 13,0 12 6 40 22 NW 1019,6 60 0 0,0
12.12.2017 18:00:00 7,4 1,5 6,4 9,7 12,9 21 11 34 19 NNW 1018,3 10 0 0,0
12.12.2017 17:00:00 8,3 1,2 7,3 9,7 13,0 16 8 42 23 NW 1017,6 60 28 0,0
12.12.2017 16:00:00 9,9 0,8 9,7 9,6 13,0 20 11 45 24 NNW 1017,0 60 46 0,0
12.12.2017 15:00:00 9,6 0,7 9,4 9,5 12,9 28 15 45 25 NNW 1016,5 51 8 0,0
12.12.2017 14:00:00 8,8 0,7 9,0 9,5 13,0 26 14 46 25 NW 1016,3 60 0 0,0
12.12.2017 13:00:00 8,7 1,4 9,3 9,4 13,0 21 12 45 24 NW 1015,8 55 1 0,0
12.12.2017 12:00:00 8,9 2,0 8,9 9,4 13,0 25 14 44 24 NNW 1015,5 53 0 0,0
12.12.2017 11:00:00 8,9 2,7 8,6 9,4 13,0 21 11 31 17 NW 1014,9 60 0 0,0
12.12.2017 10:00:00 8,6 2,4 8,0 9,4 12,9 14 8 27 15 NW 1013,7 60 0 0,0
12.12.2017 09:00:00 8,6 2,2 7,8 9,4 13,0 16 9 32 17 NW 1012,2 60 0 0,0
12.12.2017 08:00:00 8,9 1,5 7,4 9,4 13,0 8 4 13 7 NNW 1010,9 10 0 0,0
12.12.2017 07:00:00 8,3 1,9 7,1 9,4 13,0 6 4 15 8 SE 1009,5 60 0 0,0
12.12.2017 06:00:00 9,2 1,6 8,3 9,4 13,0 10 6 23 13 W 1007,9 60 0 0,0
12.12.2017 05:00:00 9,3 1,4 8,3 9,4 13,0 16 9 29 16 NW 1006,7 60 0 0,0
12.12.2017 04:00:00 9,0 2,1 8,2 9,5 13,0 16 9 25 13 NW 1006,2 60 0 0,0
12.12.2017 03:00:00 9,8 2,2 9,0 9,5 13,0 16 8 33 18 WNW 1005,9 60 0 0,0
12.12.2017 02:00:00 9,9 2,5 7,3 9,6 13,0 22 12 37 20 NW 1004,9 60 0 0,0
12.12.2017 01:00:00 9,0 2,8 0,5 9,7 13,1 17 9 34 18 WNW 1004,0 60 0 0,0
12.12.2017 00:00:00 4,3 2,0 0,7 9,8 13,0 4 2 12 6 WSW 1003,4 56 0 0,0
11.12.2017 23:00:00 5,2 2,9 2,1 9,9 13,0 9 5 19 10 SSW 1001,8 31 0 0,0
11.12.2017 22:00:00 6,1 4,1 2,9 10,0 13,0 4 2 14 7 WSW 1000,5 49 0 0,0
11.12.2017 21:00:00 5,6 3,8 3,3 10,0 13,1 5 3 14 7 W 999,2 10 0 0,0
11.12.2017 20:00:00 7,5 5,0 4,6 10,1 13,1 5 3 10 5 - 997,5 10 0 0,0
11.12.2017 19:00:00 7,7 4,6 6,4 10,1 13,0 11 6 15 8 SSW 996,1 10 0 0,0
11.12.2017 18:00:00 8,2 4,2 6,9 10,1 13,0 4 2 9 5 SSE 994,6 46 0 0,0
11.12.2017 17:00:00 8,5 4,9 7,2 10,1 13,0 9 5 18 10 S 993,9 60 0 0,0
11.12.2017 16:00:00 8,9 4,7 7,8 10,0 13,0 13 7 41 22 NW 992,3 59 0 0,0
11.12.2017 15:00:00 9,4 5,0 8,4 10,0 13,0 15 8 27 15 WNW 990,9 10 0 0,2
11.12.2017 14:00:00 10,0 6,7 9,1 9,9 13,1 9 5 23 13 WNW 990,1 10 0 0,0
11.12.2017 13:00:00 10,4 6,5 10,2 9,9 13,0 11 6 22 12 W 989,4 60 0 0,0
11.12.2017 12:00:00 11,4 6,9 11,1 9,8 13,1 8 4 25 13 NW 988,8 60 0 0,0
11.12.2017 11:00:00 11,7 7,4 10,1 9,8 13,1 15 8 23 13 NNW 988,4 10 0 0,0
11.12.2017 10:00:00 10,4 7,5 9,4 9,8 13,1 8 4 18 10 NE 987,8 60 0 0,0
11.12.2017 09:00:00 10,0 6,9 8,4 9,8 13,0 14 8 28 15 N 987,0 60 0 0,0
11.12.2017 08:00:00 11,9 7,4 6,5 9,8 13,1 27 15 47 25 WNW 985,5 60 0 0,0
11.12.2017 07:00:00 7,2 6,8 6,0 9,9 13,1 15 8 24 13 N 982,9 10 0 0,0
11.12.2017 06:00:00 7,0 6,6 6,1 9,8 13,0 2 1 14 7 - 982,8 9 0 0,0
11.12.2017 05:00:00 6,4 6,0 5,1 9,9 13,1 8 4 16 8 WSW 983,9 5 0 0,0
11.12.2017 04:00:00 6,2 5,8 5,5 9,9 13,1 4 2 16 8 - 985,7 3,7 0 0,0
11.12.2017 03:00:00 6,6 6,2 6,2 9,9 13,1 7 4 11 6 E 987,0 2,6 0 0,0

tt = Température de l'air
td = dewpoint
tt 5cm = Température de l'air 5cm
tt -20cm = Température de l'air -20cm
tt -100cm = Température de l'air -100cm
ff = Vitesse du vent
fx = gusts
dd = Direction du vent
ppp = reduced air pressure
vv = visibility
sd = Ensoleillement
rr = Quantités de précipitations

stations d'obs. à proximité